Location: Bieg
(49.3499°N, 10.3835°E)
Time: 10:47:21
(UTC+00:00)

Cosmos 1709 Rocket - Pass Details

Date: 23 May 2024
Orbit: 948 x 1001 km, 82.9° (Epoch: 21 June)

Event Time Altitude Azimuth Distance (km) Brightness Sun altitude
Exits shadow 01:49:41 15° 206° (SSW) 2,378 5.4 -12.1°
Maximum altitude 01:54:53 60° 283° (WNW) 1,131 4.2 -11.5°
Drops below altitude 10° 02:01:13 10° 4° (N) 2,782 7.3 -10.9°
Sets 02:03:49 0° 8° (N) 3,738 8.1 -10.6°
